GUS1 KBHM-KBHM

Flight info

Callsign GUS1
Flight time 0h 4m
Altitude VFR
Route
Aircraft RV10/L-DOV/C

Departure

Time 2026-04-20 22:47
Airport Birmingham-Shuttlesworth International Airport (KBHM)

Arrival

Time 2026-04-20 22:52
Airport Birmingham-Shuttlesworth International Airport (KBHM)
Time Latitude Longitude Altitude Speed Heading
2026-04-20 22:43 33.57057 -86.73905 651 ft 1 kts 233°
2026-04-20 22:44 33.57060 -86.73912 651 ft 0 kts 257°
2026-04-20 22:44 33.57129 -86.73933 651 ft 17 kts 33°
2026-04-20 22:44 33.57239 -86.73837 658 ft 18 kts 355°
2026-04-20 22:44 33.57263 -86.73859 658 ft 1 kts 303°
2026-04-20 22:45 33.57257 -86.73872 657 ft 1 kts 351°
2026-04-20 22:45 33.57259 -86.73871 657 ft 0 kts 354°
2026-04-20 22:45 33.57261 -86.73872 657 ft 0 kts 341°
2026-04-20 22:46 33.57262 -86.73873 657 ft 3 kts 308°
2026-04-20 22:47 33.57278 -86.74016 651 ft 45 kts 235°
2026-04-20 22:47 33.56997 -86.74537 777 ft 89 kts 232°
2026-04-20 22:47 33.56609 -86.75078 1119 ft 92 kts 237°
2026-04-20 22:47 33.56204 -86.75800 1305 ft 114 kts 241°
2026-04-20 22:48 33.55650 -86.76556 1532 ft 129 kts 229°
2026-04-20 22:48 33.55007 -86.77250 1989 ft 123 kts 220°
2026-04-20 22:48 33.54220 -86.77725 2224 ft 140 kts 186°
2026-04-20 22:48 33.53397 -86.77129 2673 ft 139 kts 139°
2026-04-20 22:49 33.52749 -86.76283 3017 ft 142 kts 110°
2026-04-20 22:49 33.53005 -86.75101 2917 ft 163 kts 44°
2026-04-20 22:49 33.53741 -86.74178 3374 ft 149 kts 38°
2026-04-20 22:49 33.54462 -86.73257 3668 ft 148 kts 39°
2026-04-20 22:50 33.55216 -86.72488 3458 ft 183 kts 32°
2026-04-20 22:50 33.56410 -86.71526 2620 ft 220 kts 30°
2026-04-20 22:50 33.57739 -86.70561 1693 ft 201 kts 23°
2026-04-20 22:50 33.58721 -86.70756 1397 ft 135 kts 289°
2026-04-20 22:51 33.58505 -86.71623 1191 ft 94 kts 241°
2026-04-20 22:51 33.58208 -86.72174 1113 ft 69 kts 243°
2026-04-20 22:51 33.58009 -86.72675 949 ft 67 kts 249°
2026-04-20 22:51 33.57775 -86.73110 879 ft 58 kts 241°
2026-04-20 22:52 33.57554 -86.73520 774 ft 56 kts 240°
2026-04-20 22:52 33.57355 -86.73912 675 ft 54 kts 234°
2026-04-20 22:52 33.57152 -86.74264 642 ft 47 kts 234°
2026-04-20 22:52 33.57059 -86.74410 640 ft 2 kts 224°
2026-04-20 22:53 33.57050 -86.74422 640 ft 0 kts 351°
2026-04-20 22:53 33.57048 -86.74419 640 ft 0 kts 229°
2026-04-20 22:53 33.56932 -86.74633 636 ft 54 kts 233°
2026-04-20 22:53 33.56660 -86.75097 674 ft 74 kts 235°
2026-04-20 22:54 33.56379 -86.75575 851 ft 67 kts 237°
2026-04-20 22:54 33.56071 -86.76052 1066 ft 83 kts 223°
2026-04-20 22:54 33.55763 -86.76653 1275 ft 95 kts 263°
2026-04-20 22:54 33.55397 -86.77180 1697 ft 95 kts 226°
2026-04-20 22:55 33.54736 -86.77290 2024 ft 122 kts 152°
2026-04-20 22:55 33.54009 -86.76633 2151 ft 147 kts 145°
2026-04-20 22:55 33.53482 -86.75530 2295 ft 163 kts 86°
2026-04-20 22:55 33.53881 -86.74360 2739 ft 149 kts 59°
2026-04-20 22:56 33.54356 -86.73306 3071 ft 147 kts 53°
2026-04-20 22:56 33.55212 -86.72459 2023 ft 191 kts
2026-04-20 22:56 33.56258 -86.71995 2801 ft 155 kts 39°
2026-04-20 22:56 33.57117 -86.71153 2558 ft 165 kts 36°
2026-04-20 22:57 33.57994 -86.70925 1950 ft 135 kts 323°
2026-04-20 22:57 33.58334 -86.71775 1625 ft 94 kts 270°
2026-04-20 22:57 33.58041 -86.72463 1078 ft 108 kts 238°
2026-04-20 22:57 33.57725 -86.73158 850 ft 84 kts 242°
2026-04-20 22:58 33.57427 -86.73716 753 ft 74 kts 248°
2026-04-20 22:58 33.57141 -86.74252 674 ft 84 kts 233°
2026-04-20 22:58 33.56827 -86.74801 642 ft 67 kts 238°
2026-04-20 22:58 33.56634 -86.75146 625 ft 32 kts 238°
2026-04-20 22:59 33.56525 -86.75354 621 ft 26 kts 237°
2026-04-20 22:59 33.56433 -86.75523 619 ft 21 kts 235°
2026-04-20 22:59 33.56352 -86.75652 617 ft 18 kts 231°
2026-04-20 22:59 33.56300 -86.75729 617 ft 1 kts 223°
2026-04-20 23:00 33.56296 -86.75732 617 ft 0 kts 238°
2026-04-20 23:01 33.56290 -86.75738 617 ft 12 kts 230°
2026-04-20 23:01 33.56086 -86.76113 630 ft 86 kts 236°
2026-04-20 23:01 33.55713 -86.76695 1001 ft 89 kts 227°
2026-04-20 23:02 33.55192 -86.77333 887 ft 132 kts 226°
2026-04-20 23:02 33.54888 -86.77683 1837 ft 36 kts 220°
2026-04-20 23:02 33.54469 -86.77246 1712 ft 115 kts 118°
2026-04-20 23:02 33.54618 -86.76277 1626 ft 139 kts 74°
2026-04-20 23:03 33.55003 -86.75275 4863 ft 124 kts 41°
2026-04-20 23:03 33.55621 -86.74421 2505 ft 264 kts 49°
2026-04-20 23:03 33.56016 -86.73563 3567 ft 107 kts 114°
2026-04-20 23:03 33.55950 -86.73105 3087 ft 179 kts 73°
2026-04-20 23:04 33.56668 -86.71741 1424 ft 212 kts 41°
2026-04-20 23:04 33.57418 -86.72406 1313 ft 123 kts 279°
2026-04-20 23:04 33.57531 -86.73302 911 ft 107 kts 265°
2026-04-20 23:04 33.57272 -86.74011 700 ft 84 kts 239°
2026-04-20 23:05 33.56995 -86.74520 638 ft 60 kts 236°
2026-04-20 23:05 33.56869 -86.74739 633 ft 0 kts 234°
2026-04-20 23:05 33.56862 -86.74743 633 ft 2 kts 200°
2026-04-20 23:05 33.56840 -86.74757 632 ft 4 kts 211°
2026-04-20 23:06 33.56810 -86.74779 631 ft 4 kts 211°
2026-04-20 23:06 33.56805 -86.74781 631 ft 0 kts 188°
2026-04-20 23:06 33.56803 -86.74789 631 ft 0 kts 86°
2026-04-20 23:06 33.56752 -86.74934 630 ft 59 kts 242°
2026-04-20 23:07 33.56402 -86.75513 753 ft 98 kts 232°
2026-04-20 23:07 33.56073 -86.76165 1059 ft 105 kts 217°
2026-04-20 23:07 33.55692 -86.76829 1341 ft 102 kts 282°
2026-04-20 23:07 33.55525 -86.77309 1679 ft 117 kts 137°
2026-04-20 23:08 33.55048 -86.76531 1968 ft 116 kts 156°
2026-04-20 23:08 33.54812 -86.75708 1890 ft 139 kts 37°
2026-04-20 23:08 33.55610 -86.74902 1644 ft 166 kts 34°
2026-04-20 23:08 33.56647 -86.74200 834 ft 191 kts 20°
2026-04-20 23:09 33.57035 -86.73222 1554 ft 122 kts 71°
2026-04-20 23:09 33.57308 -86.72464 1484 ft 91 kts 59°
2026-04-20 23:09 33.57779 -86.72271 1051 ft 84 kts 274°
2026-04-20 23:09 33.57821 -86.72797 788 ft 84 kts 321°
2026-04-20 23:10 33.57719 -86.73305 864 ft 106 kts 227°
2026-04-20 23:10 33.57193 -86.74188 714 ft 148 kts 237°
2026-04-20 23:10 33.56632 -86.75191 704 ft 149 kts 225°
2026-04-20 23:10 33.56004 -86.76216 816 ft 153 kts 243°
2026-04-20 23:11 33.55369 -86.77242 1066 ft 146 kts 208°
2026-04-20 23:11 33.54734 -86.76422 1289 ft 161 kts 105°
2026-04-20 23:11 33.55043 -86.75461 1150 ft 127 kts 19°
2026-04-20 23:11 33.55251 -86.74702 1079 ft 84 kts 63°
2026-04-20 23:12 33.55549 -86.74143 995 ft 79 kts 49°
2026-04-20 23:12 33.55870 -86.73604 925 ft 78 kts 49°
2026-04-20 23:12 33.56179 -86.73058 901 ft 81 kts 54°
2026-04-20 23:12 33.56493 -86.72477 983 ft 82 kts 41°
2026-04-20 23:13 33.56916 -86.71969 1080 ft 84 kts 20°
2026-04-20 23:13 33.57447 -86.71967 1088 ft 88 kts 313°
2026-04-20 23:13 33.57625 -86.72680 1039 ft 100 kts 260°
2026-04-20 23:13 33.57462 -86.73582 829 ft 129 kts 256°
2026-04-20 23:14 33.57080 -86.74350 749 ft 88 kts 247°
2026-04-20 23:14 33.57008 -86.74518 636 ft 0 kts 235°